Zurück zum Katalog

COSMOS 626

AktivMilitärLEO
NORAD 7005·PAYLOAD·🇷🇺 Russia

Gestartet Dec 27, 1973 von Baikonur Cosmodrome

Loading…

Nächste Überflüge (nächste 24 Stunden)

TLE

AktuellSource: Space-Track

Epoche: Sep 14, 2026, 08:04 UTC

1 07005U 73108A   26257.33639280 -.00000079  00000-0  61327-5 0  9998
2 07005  65.4363 226.1675 0050051   7.3845 352.7946 13.85520320667002

Verfolge COSMOS 626 in Echtzeit mit AllMySat

Download on the App Store